Orbital Elements at Epoch 2459200.5 (2020-Dec-17.0) TDB
Reference: JPL 27 (heliocentric ecliptic J2000)
Element | Value | Uncertainty (1-sigma) | Units |
e | .126482031805649 | 7.5978e-08 | |
a | 2.53226872245015 | 1.2607e-08 | au |
q | 2.21198222935676 | 1.9613e-07 | au |
i | 8.237976698625049 | 3.6926e-06 | deg |
node | 128.7484933970925 | 3.7655e-05 | deg |
peri | 59.07745313162865 | 4.0604e-05 | deg |
M | 59.3235283077189 | 1.4248e-05 | deg |
tp | 2458957.957647634529 (2020-Apr-18.45764763) | 5.8269e-05 | TDB |
period | 1471.848511751595 4.03 | 1.0992e-05 3.009e-08 | d yr |
n | .2445903889739146 | 1.8266e-09 | deg/d |
Q | 2.85255521554354 | 1.4202e-08 | au |
|
| | Orbit Determination Parameters
Additional Information
|